Temp
-12 -11 -11 -11 -11 -11 -12 -12 -13 -13 -13 -14 -14 -14 -14 -14 -13 -13 -13 -13 -12 -12 -12 -11 -11 -11 -11 -10 -10 -9 -9 -10 -10 -10 -10 -9 -9 -9 -10 -10 -11 -11 -11 -11 -10
-12 -11 -11 -11 -11 -12 -12 -13 -13 -14 -15 -15 -15 -15 -15 -14 -13 -13 -13 -13 -13 -12 -12 -12 -11 -11 -11 -10 -10 -9 -9 -10 -10 -10 -9 -9 -8 -9 -10 -11 -11 -11 -12 -11 -11
-12 -12 -12 -12 -12 -13 -13 -14 -15 -15 -15 -16 -17 -17 -16 -15 -14 -13 -13 -13 -13 -13 -12 -12 -12 -11 -11 -11 -10 -9 -9 -10 -10 -10 -10 -9 -9 -9 -10 -11 -11 -11 -11 -11 -11
-12 -12 -12 -13 -13 -13 -14 -15 -15 -16 -17 -18 -18 -19 -18 -17 -15 -14 -14 -14 -14 -13 -12 -12 -12 -11 -11 -11 -11 -9 -10 -10 -11 -10 -10 -10 -9 -10 -10 -11 -11 -11 -11 -11 -11
-12 -13 -13 -13 -13 -13 -15 -16 -17 -18 -19 -19 -20 -20 -20 -18 -15 -14 -14 -14 -14 -13 -12 -12 -12 -12 -11 -11 -11 -10 -10 -10 -10 -10 -10 -10 -10 -10 -10 -12 -11 -11 -11 -10 -11
-13 -13 -13 -14 -13 -14 -15 -16 -18 -20 -20 -21 -21 -21 -20 -18 -16 -15 -15 -14 -14 -13 -12 -12 -12 -12 -12 -11 -11 -10 -11 -10 -10 -11 -10 -10 -10 -9 -11 -11 -11 -10 -11 -11 -11
-14 -13 -14 -14 -14 -14 -16 -17 -19 -20 -20 -22 -22 -22 -21 -19 -17 -17 -15 -15 -14 -13 -13 -13 -13 -12 -12 -12 -11 -10 -10 -10 -10 -11 -10 -10 -10 -10 -11 -10 -11 -10 -11 -11 -10
-14 -14 -14 -14 -15 -15 -16 -18 -19 -21 -21 -22 -23 -22 -21 -20 -18 -17 -15 -15 -14 -14 -13 -14 -13 -13 -12 -12 -11 -11 -10 -10 -11 -11 -11 -9 -11 -10 -10 -11 -11 -10 -10 -10 -10
-14 -14 -14 -14 -15 -16 -17 -19 -20 -21 -21 -22 -23 -23 -22 -21 -19 -18 -16 -15 -14 -14 -14 -14 -14 -13 -13 -12 -11 -11 -10 -10 -11 -10 -10 -10 -11 -9 -10 -11 -11 -11 -10 -10 -10
-14 -14 -14 -15 -16 -17 -18 -19 -20 -21 -21 -22 -23 -23 -22 -21 -19 -18 -16 -15 -14 -15 -14 -14 -14 -13 -13 -12 -11 -11 -10 -11 -11 -10 -10 -11 -11 -10 -10 -10 -10 -10 -10 -10 -10
-14 -15 -14 -15 -16 -17 -18 -19 -20 -21 -21 -23 -23 -23 -22 -21 -19 -18 -16 -15 -15 -15 -14 -14 -14 -13 -12 -12 -12 -11 -10 -11 -11 -11 -10 -11 -10 -10 -10 -10 -10 -10 -10 -10 -10
-14 -15 -15 -15 -16 -17 -18 -19 -20 -20 -21 -22 -23 -23 -23 -22 -20 -17 -16 -15 -15 -14 -15 -14 -14 -14 -13 -13 -12 -11 -10 -11 -11 -10 -11 -10 -10 -10 -10 -10 -10 -10 -10 -9 -9
-14 -15 -15 -15 -16 -17 -18 -19 -20 -21 -21 -22 -22 -23 -23 -22 -20 -17 -16 -15 -15 -15 -14 -14 -14 -14 -13 -13 -12 -11 -11 -11 -11 -11 -11 -11 -10 -10 -10 -10 -9 -9 -9 -9 -9
-14 -14 -14 -15 -16 -17 -17 -19 -20 -21 -21 -21 -22 -22 -22 -21 -19 -17 -16 -16 -15 -15 -14 -14 -14 -14 -13 -13 -12 -12 -12 -12 -11 -11 -11 -10 -10 -10 -10 -9 -9 -9 -9 -9 -9
-14 -15 -15 -15 -16 -16 -17 -18 -19 -20 -21 -21 -22 -22 -22 -20 -18 -17 -16 -16 -15 -14 -15 -14 -14 -13 -13 -13 -12 -12 -12 -12 -11 -11 -11 -11 -10 -10 -10 -9 -9 -9 -9 -9 -9
-15 -15 -15 -15 -15 -16 -17 -18 -18 -20 -20 -21 -22 -21 -21 -19 -18 -17 -16 -16 -15 -15 -15 -15 -14 -14 -14 -13 -13 -13 -13 -13 -11 -11 -10 -11 -10 -10 -10 -9 -9 -9 -9 -9 -9
-16 -15 -15 -15 -15 -16 -17 -17 -18 -18 -19 -20 -21 -21 -20 -18 -17 -16 -15 -15 -15 -15 -15 -15 -14 -14 -14 -13 -12 -13 -14 -13 -12 -11 -10 -11 -11 -10 -10 -9 -9 -9 -9 -9 -9
-16 -16 -15 -15 -15 -15 -16 -16 -17 -18 -19 -20 -21 -21 -18 -17 -17 -16 -15 -15 -15 -15 -14 -14 -14 -13 -13 -13 -12 -13 -13 -12 -11 -11 -10 -11 -10 -10 -10 -10 -10 -10 -10 -10 -9
-15 -15 -16 -15 -15 -15 -15 -16 -17 -18 -18 -19 -20 -19 -18 -18 -16 -16 -15 -15 -14 -14 -14 -14 -13 -13 -13 -13 -13 -13 -12 -13 -12 -11 -10 -11 -11 -11 -10 -10 -10 -10 -11 -10 -10
-14 -14 -15 -15 -15 -14 -15 -16 -17 -17 -17 -18 -18 -18 -18 -17 -17 -17 -15 -16 -14 -14 -14 -14 -13 -13 -13 -13 -13 -13 -14 -13 -12 -12 -11 -11 -11 -11 -11 -11 -11 -11 -11 -11 -11
-14 -14 -15 -15 -14 -14 -14 -15 -16 -17 -16 -17 -17 -17 -17 -17 -17 -16 -15 -15 -15 -14 -14 -14 -13 -13 -13 -12 -12 -12 -12 -12 -12 -11 -11 -11 -11 -11 -11 -12 -12 -12 -12 -12 -11
-14 -14 -15 -14 -14 -14 -14 -14 -15 -16 -16 -16 -16 -16 -17 -16 -16 -16 -15 -14 -15 -14 -14 -13 -13 -14 -13 -12 -13 -13 -13 -13 -13 -12 -12 -11 -11 -12 -12 -12 -12 -12 -12 -12 -12
-14 -13 -14 -14 -15 -14 -14 -14 -14 -15 -16 -15 -15 -16 -16 -16 -16 -16 -15 -15 -15 -14 -14 -13 -13 -13 -13 -13 -14 -13 -13 -13 -13 -12 -12 -11 -11 -12 -12 -13 -13 -12 -12 -12 -12
-14 -14 -14 -14 -14 -14 -14 -14 -14 -14 -15 -15 -15 -15 -16 -16 -15 -15 -15 -15 -15 -14 -14 -14 -13 -13 -13 -12 -13 -13 -13 -13 -13 -12 -12 -12 -12 -13 -13 -12 -12 -12 -12 -12 -12
-15 -14 -14 -14 -14 -14 -14 -14 -14 -14 -14 -14 -15 -15 -15 -16 -15 -15 -15 -15 -15 -15 -15 -15 -15 -15 -14 -14 -14 -14 -14 -14 -13 -13 -12 -13 -13 -13 -12 -12 -12 -13 -12 -13 -13
-15 -14 -14 -15 -14 -14 -14 -14 -14 -14 -14 -14 -15 -15 -15 -16 -15 -15 -15 -15 -15 -15 -15 -15 -15 -15 -14 -14 -14 -14 -14 -14 -13 -13 -12 -12 -13 -13 -12 -12 -13 -13 -13 -13 -13
-16 -15 -14 -15 -14 -14 -14 -14 -14 -14 -14 -14 -15 -15 -15 -15 -15 -15 -15 -15 -15 -15 -15 -15 -14 -14 -14 -14 -14 -14 -13 -13 -13 -13 -13 -13 -13 -13 -13 -13 -13 -13 -13 -13 -13
Height
5719 5717 5713 5709 5705 5702 5698 5696 5695 5695 5696 5698 5700 5702 5708 5713 5721 5731 5741 5757 5762 5768 5771 5776 5783 5788 5792 5798 5801 5806 5811 5814 5816 5817 5819 5821 5824 5826 5828 5829 5834 5836 5837 5840 5842
5709 5707 5703 5698 5694 5689 5686 5683 5681 5680 5678 5678 5681 5687 5689 5695 5705 5717 5736 5743 5752 5758 5765 5771 5778 5781 5786 5792 5794 5801 5808 5810 5811 5814 5815 5819 5822 5823 5825 5827 5831 5834 5836 5838 5839
5700 5697 5692 5687 5682 5677 5673 5668 5666 5664 5660 5658 5660 5663 5668 5677 5688 5711 5715 5729 5740 5747 5756 5762 5768 5771 5779 5785 5790 5799 5806 5804 5807 5810 5812 5816 5818 5820 5822 5825 5828 5831 5832 5834 5836
5692 5688 5682 5676 5670 5663 5657 5654 5651 5647 5643 5641 5640 5640 5645 5656 5672 5687 5702 5718 5729 5735 5746 5754 5759 5765 5776 5782 5788 5795 5800 5801 5803 5806 5810 5811 5814 5815 5818 5821 5824 5827 5829 5831 5832
5683 5679 5672 5666 5659 5651 5644 5640 5635 5630 5627 5625 5625 5625 5626 5637 5664 5676 5691 5707 5716 5724 5736 5744 5752 5762 5773 5780 5782 5789 5794 5796 5798 5802 5805 5807 5810 5812 5815 5817 5818 5823 5826 5827 5828
5676 5670 5663 5657 5649 5640 5633 5627 5622 5618 5615 5610 5609 5611 5614 5629 5656 5657 5675 5692 5704 5717 5731 5738 5749 5760 5765 5770 5776 5783 5785 5790 5795 5797 5801 5804 5807 5809 5813 5812 5814 5820 5823 5824 5825
5669 5661 5654 5648 5639 5630 5623 5616 5611 5607 5604 5599 5599 5598 5608 5633 5632 5641 5664 5681 5694 5711 5724 5736 5745 5751 5760 5765 5772 5775 5780 5785 5791 5794 5795 5799 5805 5806 5806 5807 5813 5817 5819 5819 5820
5661 5654 5647 5639 5631 5621 5613 5607 5601 5597 5592 5589 5588 5591 5604 5610 5616 5632 5652 5671 5686 5703 5717 5728 5735 5744 5753 5759 5765 5769 5775 5782 5787 5787 5790 5795 5800 5799 5802 5805 5809 5812 5814 5815 5816
5655 5648 5641 5632 5623 5614 5606 5600 5594 5590 5585 5580 5581 5586 5592 5601 5614 5628 5644 5662 5676 5694 5709 5718 5724 5733 5743 5752 5759 5762 5773 5779 5780 5782 5787 5790 5796 5797 5799 5801 5805 5808 5810 5811 5812
5650 5642 5634 5624 5616 5607 5600 5594 5589 5584 5579 5574 5574 5579 5589 5599 5604 5620 5635 5651 5668 5685 5698 5708 5716 5726 5735 5744 5749 5764 5771 5776 5776 5780 5782 5787 5791 5793 5796 5798 5801 5803 5805 5806 5807
5645 5636 5627 5619 5611 5602 5594 5588 5584 5579 5575 5572 5573 5577 5583 5591 5600 5615 5630 5646 5662 5678 5691 5702 5708 5717 5735 5748 5755 5759 5763 5769 5770 5772 5779 5782 5786 5788 5790 5794 5797 5799 5801 5802 5802
5640 5632 5623 5615 5607 5598 5590 5585 5580 5577 5573 5569 5569 5573 5576 5582 5593 5609 5624 5642 5660 5676 5684 5696 5703 5723 5734 5741 5747 5753 5760 5766 5768 5770 5775 5778 5784 5784 5788 5790 5792 5795 5796 5796 5796
5636 5629 5621 5611 5602 5594 5587 5581 5575 5572 5571 5569 5568 5571 5575 5582 5593 5608 5625 5639 5655 5670 5683 5694 5707 5717 5726 5735 5743 5751 5758 5762 5765 5766 5772 5774 5779 5781 5784 5786 5788 5790 5791 5790 5790
5632 5626 5619 5609 5600 5593 5585 5579 5575 5571 5568 5569 5569 5571 5577 5581 5592 5607 5622 5639 5654 5670 5683 5692 5704 5715 5723 5733 5740 5748 5754 5755 5760 5762 5768 5771 5776 5777 5780 5782 5783 5785 5785 5784 5784
5628 5623 5617 5608 5598 5591 5585 5578 5574 5569 5566 5566 5565 5569 5575 5585 5597 5608 5623 5640 5656 5670 5676 5689 5702 5710 5718 5731 5740 5749 5747 5752 5755 5759 5763 5768 5769 5776 5774 5776 5778 5779 5779 5779 5779
5626 5620 5615 5608 5600 5592 5585 5578 5573 5570 5564 5560 5560 5566 5573 5583 5596 5609 5624 5639 5653 5664 5676 5687 5699 5706 5716 5729 5737 5740 5742 5747 5750 5753 5759 5766 5765 5771 5771 5772 5775 5775 5774 5774 5774
5625 5618 5614 5608 5601 5592 5585 5579 5574 5567 5564 5561 5559 5565 5575 5587 5598 5612 5626 5638 5649 5658 5668 5683 5695 5704 5716 5722 5728 5732 5738 5743 5748 5752 5758 5760 5760 5766 5766 5768 5769 5769 5768 5769 5770
5623 5618 5613 5607 5600 5595 5588 5583 5578 5574 5569 5563 5563 5570 5579 5589 5601 5613 5625 5639 5651 5663 5675 5678 5686 5698 5707 5718 5726 5730 5737 5742 5744 5747 5752 5755 5758 5761 5761 5762 5763 5763 5763 5763 5764
5622 5618 5612 5607 5601 5597 5591 5586 5583 5580 5575 5571 5571 5577 5585 5599 5609 5618 5631 5642 5651 5660 5669 5678 5691 5701 5709 5717 5722 5725 5731 5737 5739 5742 5747 5751 5755 5757 5756 5756 5757 5757 5756 5756 5759
5620 5617 5612 5607 5602 5599 5596 5590 5590 5588 5584 5581 5584 5585 5590 5598 5612 5619 5629 5642 5651 5661 5670 5680 5691 5698 5705 5712 5715 5721 5729 5731 5734 5739 5742 5746 5749 5750 5750 5750 5751 5751 5750 5752 5753
5618 5616 5613 5608 5604 5602 5597 5594 5593 5593 5593 5594 5595 5599 5602 5606 5616 5625 5634 5643 5652 5659 5667 5678 5687 5695 5702 5705 5711 5718 5723 5728 5731 5734 5737 5741 5744 5744 5743 5743 5745 5745 5746 5748 5748
5616 5616 5613 5609 5607 5604 5600 5597 5597 5598 5599 5604 5609 5611 5612 5614 5618 5628 5637 5648 5654 5662 5669 5677 5684 5690 5698 5703 5708 5713 5718 5723 5725 5731 5733 5735 5740 5738 5738 5738 5739 5740 5742 5743 5742
5614 5614 5613 5610 5609 5607 5604 5601 5600 5601 5603 5605 5610 5613 5619 5623 5628 5633 5640 5647 5655 5661 5667 5674 5680 5685 5691 5698 5703 5709 5714 5718 5722 5725 5729 5730 5735 5733 5733 5734 5735 5737 5737 5737 5736
5612 5613 5613 5611 5610 5609 5606 5605 5602 5603 5604 5606 5609 5612 5615 5623 5630 5637 5642 5648 5655 5661 5666 5671 5677 5683 5690 5699 5704 5707 5713 5717 5718 5720 5724 5726 5727 5727 5728 5730 5732 5732 5732 5731 5730
5609 5610 5612 5610 5611 5610 5608 5607 5605 5605 5605 5607 5611 5614 5620 5627 5631 5636 5643 5650 5655 5658 5664 5670 5674 5680 5686 5692 5697 5703 5708 5709 5712 5716 5716 5721 5720 5720 5724 5726 5726 5725 5726 5725 5722
5607 5608 5611 5610 5610 5611 5609 5609 5607 5607 5608 5609 5613 5617 5621 5627 5635 5641 5645 5650 5656 5660 5664 5669 5674 5679 5684 5690 5694 5698 5701 5704 5707 5710 5712 5715 5716 5716 5719 5719 5719 5719 5718 5717 5715
5604 5604 5608 5609 5609 5611 5611 5610 5610 5610 5610 5612 5614 5618 5623 5627 5632 5636 5643 5650 5655 5660 5665 5669 5673 5678 5683 5686 5689 5692 5698 5700 5703 5705 5707 5709 5712 5713 5712 5711 5711 5711 5710 5710 5709
Wind_Speed
37 37 37 37 39 46 46 47 50 52 51 53 55 61 65 69 69 65 60 53 51 49 49 46 42 39 37 36 32 30 27 27 26 24 23 23 21 18 15 20 14 16 15 17 18
33 36 33 36 40 42 44 50 53 52 55 57 58 63 69 71 73 69 61 57 53 53 51 48 42 40 40 37 35 32 26 27 31 26 24 22 21 17 14 16 21 14 15 18 18
36 31 32 39 42 42 46 48 48 49 57 60 61 68 70 74 74 68 67 61 56 55 53 51 45 45 42 40 36 31 26 30 32 31 26 22 21 16 13 13 21 15 15 14 18
34 29 34 38 40 41 44 43 45 52 51 50 54 56 62 70 72 75 68 62 58 58 56 52 51 48 40 36 34 30 30 29 31 32 25 23 21 18 12 16 21 21 18 14 14
29 31 35 36 41 43 41 38 44 44 37 44 49 44 53 65 69 72 70 63 63 60 58 55 54 45 39 34 35 31 30 33 33 31 26 22 23 21 13 16 22 26 20 15 13
33 34 33 35 40 41 37 40 37 34 34 40 39 42 47 57 61 72 72 66 66 61 58 57 52 41 41 39 35 32 35 37 31 29 28 25 22 18 14 21 23 21 17 11 13
36 31 33 35 39 38 37 35 32 31 33 37 39 44 44 41 64 71 73 68 68 62 57 52 47 47 42 39 35 37 36 33 29 29 31 27 19 23 23 21 18 18 17 16 16
31 34 32 37 36 37 35 31 30 29 31 34 37 40 37 45 59 67 72 69 68 63 57 53 51 47 43 42 38 37 33 30 29 34 31 26 15 26 22 20 21 19 20 19 17
30 30 34 38 36 34 32 27 25 30 25 27 33 35 40 40 51 61 69 70 69 64 58 54 52 51 48 43 40 39 32 30 31 34 28 26 17 21 20 21 22 23 22 21 20
30 31 35 40 35 31 28 26 23 27 22 25 28 36 32 37 47 59 69 71 69 64 61 57 51 53 50 46 46 32 31 29 32 31 28 24 19 21 18 19 22 22 23 19 19
30 31 40 42 36 28 27 25 22 21 18 17 18 24 29 37 47 58 68 70 68 66 63 58 56 58 49 37 33 34 37 31 33 34 26 24 21 20 18 15 18 18 19 19 23
29 31 39 42 36 24 19 18 19 22 19 11 19 25 30 31 48 59 67 68 66 65 63 60 57 44 40 40 39 36 34 30 31 30 25 24 19 20 18 17 18 19 20 23 25
31 28 35 28 34 26 14 13 19 17 17 7 11 19 26 30 46 58 64 68 66 65 63 60 53 46 43 41 37 32 30 27 29 29 24 24 20 21 21 21 20 19 20 20 19
30 33 36 35 32 21 18 11 19 16 16 14 9 17 26 32 47 58 62 65 63 62 59 57 50 45 43 39 35 31 24 28 29 27 22 24 21 19 21 23 22 20 19 18 17
32 29 25 30 36 27 23 15 14 16 25 18 18 13 31 30 46 58 60 62 57 58 62 59 49 49 47 37 32 22 26 26 29 26 24 19 22 14 22 25 24 23 20 18 19
28 24 25 32 36 31 26 22 19 13 20 12 16 20 34 38 49 56 61 62 57 59 57 56 51 45 39 34 27 30 30 26 29 28 28 18 23 13 21 24 23 22 22 21 21
23 24 21 27 33 29 23 19 20 19 14 12 11 28 33 44 53 56 61 62 55 60 59 53 50 45 39 38 33 33 32 27 27 25 21 21 25 14 21 22 22 22 22 22 23
19 23 22 21 24 26 20 17 19 13 7 10 23 34 41 51 53 56 61 59 54 52 53 55 54 49 45 37 35 30 29 23 24 23 23 22 22 19 22 24 24 24 22 25 26
16 22 22 19 20 26 17 11 11 5 7 8 31 38 48 34 44 51 54 57 54 51 52 52 48 42 38 34 34 30 34 28 25 25 24 24 22 21 23 25 27 27 28 30 28
13 21 22 18 18 25 17 2 5 6 15 14 26 51 53 51 48 46 51 50 50 49 46 44 44 43 37 36 39 38 30 30 29 27 25 23 22 23 25 26 26 27 30 30 29
10 19 18 16 12 17 24 3 5 11 15 14 32 41 43 51 45 50 50 47 41 44 44 41 39 39 37 38 36 34 32 29 28 28 25 23 24 21 22 24 26 27 27 27 27
8 13 11 11 11 18 22 8 6 10 13 17 28 32 29 46 45 40 34 34 33 34 36 38 35 36 38 38 38 37 32 30 31 28 24 23 20 19 21 22 23 23 22 24 26
6 13 9 6 7 7 12 10 11 11 12 14 23 25 31 42 39 34 25 29 28 27 31 34 39 37 37 38 39 33 30 30 28 27 23 23 19 20 20 22 21 21 24 27 29
8 9 8 3 2 5 6 10 2 7 6 16 22 24 36 42 31 24 32 28 28 24 26 34 37 37 35 26 27 28 25 25 27 27 24 22 18 22 24 22 20 24 26 27 29
11 9 10 4 3 5 5 9 3 3 7 14 22 23 25 38 29 29 30 30 28 27 26 25 33 31 32 33 33 30 28 30 29 24 26 19 25 28 23 20 24 25 26 29 32
15 12 14 7 2 5 8 10 6 9 11 16 19 21 20 25 30 29 24 30 25 29 28 26 34 31 29 31 30 31 32 30 29 26 25 24 25 26 24 25 26 26 28 31 32
18 13 17 13 5 2 6 4 11 13 15 16 21 19 20 19 24 34 31 28 22 28 24 23 30 31 32 31 30 32 31 28 27 27 27 26 24 25 25 25 26 27 31 33 33
Wind_Direction
284 283 289 290 300 299 291 286 278 273 264 259 251 249 245 236 232 231 231 228 227 220 225 225 226 229 230 228 224 226 221 221 230 238 240 244 248 257 265 246 226 246 251 247 248
283 287 289 295 300 297 290 285 281 276 268 263 262 248 242 237 228 227 227 222 223 219 221 225 224 227 228 227 226 223 220 222 230 237 240 243 248 258 265 253 239 251 251 256 258
287 286 287 299 301 301 297 288 280 275 272 269 272 248 239 233 229 221 223 220 218 219 217 222 222 225 226 224 226 222 216 227 230 233 238 245 248 252 263 255 223 231 243 243 252
296 289 294 301 304 306 298 286 281 277 272 270 270 251 240 228 226 218 219 217 214 216 214 219 223 224 224 227 230 225 222 230 232 230 235 243 251 256 246 242 235 234 246 241 243
298 298 303 305 310 310 302 291 287 280 272 269 257 242 234 228 221 220 215 215 213 215 211 216 221 222 223 223 226 222 223 226 228 232 231 240 249 255 241 232 237 232 250 248 248
311 308 306 310 315 312 303 297 297 276 283 273 253 237 236 229 218 220 212 212 211 212 212 215 219 218 220 220 221 219 222 223 225 236 232 234 244 253 247 233 238 238 252 251 242
316 313 311 312 321 314 304 305 301 285 284 267 248 233 231 221 215 216 209 207 210 208 210 213 216 218 219 221 219 217 219 221 222 233 236 230 237 249 231 243 235 239 242 241 242
318 319 319 318 324 316 304 306 302 295 292 265 243 230 218 213 212 210 206 203 207 205 208 209 212 216 218 220 220 220 217 217 222 226 233 227 224 240 251 242 235 236 241 250 255
326 328 328 326 325 318 301 305 302 293 292 267 239 234 214 210 207 206 203 200 204 202 205 208 210 213 216 217 220 220 213 212 220 226 231 227 228 243 244 241 240 243 248 249 269
328 332 333 323 324 320 304 303 299 290 295 266 232 231 214 210 203 203 199 198 199 200 203 205 210 213 216 215 219 217 214 212 220 227 225 228 231 240 245 247 247 247 252 254 256
330 338 339 329 323 325 308 305 298 282 298 266 236 219 206 203 199 200 196 197 196 198 202 203 211 213 215 218 221 216 216 214 217 228 224 223 227 232 234 235 238 240 245 258 266
325 338 337 336 326 327 316 310 298 281 269 271 228 210 207 201 191 197 194 194 195 197 200 205 211 211 210 212 218 216 216 218 224 228 223 219 221 237 229 226 232 250 261 265 271
329 334 340 338 333 324 338 322 301 271 267 259 201 209 194 191 188 193 192 191 194 197 200 205 205 206 207 213 217 214 216 221 229 228 223 220 212 226 230 231 242 254 266 265 265
327 332 329 344 342 326 334 321 293 266 252 263 217 204 189 183 186 187 187 192 193 194 199 206 205 207 207 211 215 210 217 219 228 233 227 225 211 226 227 238 244 253 263 265 257
330 340 347 350 343 349 331 332 310 262 242 257 227 202 179 184 185 183 184 189 191 196 199 202 199 201 207 209 211 203 222 227 228 234 225 226 233 207 234 235 241 247 254 256 256
332 343 346 343 352 341 331 313 334 287 260 295 209 209 181 175 178 182 182 184 191 194 199 203 204 210 205 207 206 211 226 231 226 233 228 230 245 223 238 239 246 248 250 253 253
333 339 339 347 350 339 333 333 339 338 311 331 187 172 175 172 172 180 181 183 191 193 198 199 203 207 207 204 203 216 217 223 230 235 232 238 242 232 245 241 246 248 255 260 263
339 334 340 349 355 354 345 358 6 5 322 313 157 160 164 165 170 178 180 185 190 196 205 200 199 200 204 204 214 219 216 228 238 240 244 249 242 244 251 249 250 254 257 260 263
335 335 339 341 346 348 344 36 9 44 45 102 155 158 151 147 173 179 183 188 192 195 202 204 207 206 208 211 216 221 222 233 241 244 243 244 245 250 251 250 251 254 257 260 266
322 326 334 342 345 0 349 342 55 90 80 75 164 156 151 158 163 171 181 184 197 199 201 205 207 207 210 211 214 216 220 229 238 248 251 247 248 253 253 250 252 254 258 265 269
314 325 330 349 357 340 341 349 128 139 108 89 156 150 161 162 166 176 183 190 197 200 203 203 206 207 209 213 220 220 227 232 239 245 246 250 255 251 249 247 248 254 260 266 269
300 319 324 357 17 358 343 326 195 131 147 134 167 173 154 169 164 166 191 183 195 202 206 206 208 213 215 218 218 225 226 231 238 241 249 252 250 249 239 243 248 253 258 263 268
272 309 300 356 27 22 9 16 88 144 151 154 165 180 184 176 170 171 191 189 193 195 194 202 204 207 210 216 220 221 222 225 229 236 239 247 243 242 233 238 249 256 262 270 275
247 289 279 19 19 16 27 2 336 123 187 182 169 166 182 181 170 179 184 185 186 192 196 203 205 209 216 218 218 215 218 228 233 234 241 245 233 237 240 247 259 265 273 276 277
228 243 241 128 31 72 75 24 60 97 162 180 177 162 167 187 187 192 197 189 194 186 192 204 205 205 207 204 207 210 221 229 233 237 238 227 235 245 252 261 265 273 275 274 276
220 215 233 194 269 127 84 15 96 122 144 165 177 191 197 202 199 201 196 205 213 205 193 202 202 203 203 206 215 220 222 228 233 235 239 237 247 258 263 266 274 275 272 277 281
217 202 219 208 199 233 142 94 87 125 111 153 159 160 169 173 192 192 194 197 204 198 202 206 197 205 209 213 217 222 223 229 235 238 242 248 256 263 272 275 275 275 276 280 286